{"data":{"norad_id":48473,"epoch":"2026-05-24T20:17:48.982848Z","epoch_age_seconds":88361,"freshness":"FRESH","line1":"1 48473U 21040AX  26144.84570582  .00000525  00000+0  28682-4 0  9990","line2":"2 48473  53.1592 196.8004 0001380  76.4263 283.6892 15.31703320278168","mean_motion":15.3170332,"eccentricity":0.000138,"inclination_deg":53.1592,"raan_deg":196.8004,"arg_perigee_deg":76.4263,"mean_anomaly_deg":283.6892,"bstar":2.8682e-5,"rev_number":27816,"period_min":94.012984185475,"perigee_km":469.78495483669,"apogee_km":471.67524215587,"semimajor_km":6848.8670984963,"source":"CELESTRAK","updated_at":"2026-05-25T13:38:16.721920Z"}}